Location: Unspecified
(0.0000°N, 0.0000°E)
Time: 16:19:55
(UTC+00:00)

Vanguard 2 - Visible Passes

Search period start: 12 April 2021 00:00
Search period end: 22 April 2021 00:00
Orbit: 552 x 2938 km, 32.9° (Epoch: 11 April)

Date Brightness Start Highest point End Pass type
(mag) Time Alt. Az. Time Alt. Az. Time Alt. Az.
12 Apr 11.1 03:13:45 12° S 03:13:45 12° S 03:16:19 10° SSE visible
12 Apr 11.3 05:22:18 10° SSW 05:27:15 12° S 05:32:43 10° SSE visible
13 Apr 11.1 03:30:34 10° S 03:30:34 10° S 03:32:20 10° S visible
13 Apr 11.4 05:40:32 10° SSW 05:46:48 14° SSE 05:53:51 10° SE visible
17 Apr 11.3 04:44:14 10° S 04:47:57 11° SSE 04:52:02 10° SE visible
18 Apr 11.3 05:00:37 10° S 05:07:03 15° SSE 05:14:35 10° SE visible
19 Apr 11.2 05:17:24 10° SSW 05:25:54 19° SSE 05:36:16 10° ESE visible
20 Apr 9.1 19:01:59 10° NNW 19:05:04 15° NNE 19:06:34 13° NE visible
21 Apr 8.3 19:18:42 10° NNW 19:23:09 27° NNE 19:23:36 27° NE visible
